Printer-friendly version

IAU Minor Planet Center

Minor Planet Center

MPEC 2003-V35 : 2003 VE1

The following Minor Planet Electronic Circular may be linked-to from your own Web pages, but must not otherwise be redistributed electronically.


Read MPEC 2003-V34 Read MPEC 2003-V36


M.P.E.C. 2003-V35                                Issued 2003 Nov. 6, 22:41 UT

     The Minor Planet Electronic Circulars contain information on unusual
         minor planets and routine data on comets.  They are published
   on behalf of Commission 20 of the International Astronomical Union by the
          Minor Planet Center, Smithsonian Astrophysical Observatory,
                          Cambridge, MA 02138, U.S.A.

         Supported in part by the Steven and Michele Kirsch Foundation
             Prepared using the Tamkin Foundation Computer Network

                              MPC@CFA.HARVARD.EDU
          URL http://cfa-www.harvard.edu/iau/mpc.html  ISSN 1523-6714

                                   2003 VE1

Observations:
     K03V01E* C2003 11 05.33075 06 21 37.19 +50 20 17.6          18.8        704
     K03V01E  C2003 11 05.34318 06 21 35.54 +50 20 52.7          18.5        704
     K03V01E  C2003 11 05.35630 06 21 33.63 +50 21 27.7          18.6        704
     K03V01E  C2003 11 05.36922 06 21 31.71 +50 22 04.0          18.4        704
     K03V01E  C2003 11 05.38231 06 21 29.76 +50 22 39.5          18.9        704
     K03V01E  C2003 11 05.94816 06 20 15.58 +50 47 25.8          18.6 V      198
     K03V01E  C2003 11 05.95529 06 20 14.59 +50 47 46.1          18.6 V      198
     K03V01E  C2003 11 05.95826 06 20 14.16 +50 47 54.3          18.8 V      198
     K03V01E  C2003 11 06.04329 06 20 01.64 +50 51 43.5                      557
     K03V01E  C2003 11 06.04481 06 20 01.47 +50 51 46.7                      557
     K03V01E  C2003 11 06.04632 06 20 01.18 +50 51 50.8                      557
     K03V01E  C2003 11 06.35657 06 19 19.64 +51 05 21.8          18.9 R      854
     K03V01E  C2003 11 06.35767 06 19 19.39 +51 05 25.0          19.2 R      854
     K03V01E  C2003 11 06.35877 06 19 19.24 +51 05 28.0          18.9 R      854
     K03V01E  C2003 11 06.37162 06 19 17.11 +51 06 01.6          18.2        704
     K03V01E  C2003 11 06.39590 06 19 13.32 +51 07 04.5          18.6        704
     K03V01E  C2003 11 06.40839 06 19 11.43 +51 07 37.3          18.8        704
     K03V01E  C2003 11 06.42073 06 19 09.53 +51 08 08.9          19.0        704
     K03V01E  C2003 11 06.45098 06 19 05.11 +51 09 27.7          18.6 R      926
     K03V01E  C2003 11 06.45218 06 19 04.88 +51 09 31.0          18.8 R      926
     K03V01E  C2003 11 06.45338 06 19 04.69 +51 09 34.2          18.6 R      926

Observer details:
198 Wildberg.  Observer R. Apitzsch.  0.235-m Schmidt-Cassegrain + CCD.
557 Ondrejov.  Observer L. Sarounova.  0.65-m f/3.6 reflector + CCD.
704 Lincoln Laboratory ETS, New Mexico.  Observers M. Blythe, F. Shelly,
    M. Bezpalko, R. Huber, L. Manguso, D. Torres, R. Kracke, M. McCleary,
    H. Stange, A. Milner.  Measurers J. Stuart, R. Sayer, J. Evans, J. Kommers.
    1.0-m f/2.15 reflector + CCD.
854 Sabino Canyon Observatory, Tucson.  Observer J. E. McGaha.  0.30-m f/10.0
    Schmidt-Cassegrain + CCD.
926 Tenagra II Observatory.  Observers P. R. Holvorcem, M. Schwartz.  0.81-m
    f/7 Ritchey-Chretien + CCD.

Orbital elements:
2003 VE1                                                             PHA 0.049A
Epoch 2003 Oct. 28.0 TT = JDT 2452940.5                 MPC
M  15.56829              (2000.0)            P               Q
n   0.34065112     Peri.  323.91448     +0.98226715     +0.12373825
a   2.0304681      Node    29.92386     -0.01326575     +0.79526598
e   0.5169805      Incl.   16.40110     -0.18701673     +0.59349884
P   2.89           H   19.5           G   0.15
From 21 observations 2003 Nov. 5-6.

Ephemeris:
2003 VE1                 a,e,i = 2.03, 0.52, 16                  q = 0.9808
Date    TT    R. A. (2000) Decl.     Delta      r     Elong.  Phase     V
2003 11 07    06 17.80   +51 32.5    0.298    1.188   125.3    42.9    18.9
2003 11 17    05 48.71   +56 57.5    0.347    1.254   133.7    34.7    19.1
2003 11 27    05 13.19   +59 26.2    0.406    1.324   139.9    28.7    19.4
2003 12 07    04 41.15   +59 30.0    0.477    1.396   143.0    25.2    19.8
2003 12 17    04 19.54   +58 02.9    0.559    1.468   142.6    24.0    20.2
2003 12 27    04 09.29   +55 54.1    0.655    1.541   139.5    24.5    20.7
2004 01 06    04 08.34   +53 36.4    0.763    1.614   134.6    25.7    21.1
2004 01 16    04 14.01   +51 26.0    0.884    1.685   128.8    27.1    21.6
2004 01 26    04 24.24   +49 28.7    1.017    1.755   122.6    28.2    22.0

Timothy B. Spahr             (C) Copyright 2003 MPC           M.P.E.C. 2003-V35

Read MPEC 2003-V34 Read MPEC 2003-V36


Our Web policy. Index to the CBAT/MPC/ICQ pages.


Valid HTML 4.01!